EW9353 Weather Reports


time (UTC)temp
F
wind
direction
speed
knots
gust
knots
rain 1hr
in
rain 24hr
in
rain mn
in
humidity
%
barometer
mb
20260508100053 56 221 0.9 6.1 0.00 0.00 0.00 77 1010.4
20260508094558 55 221 1.7 6.1 0.00 0.00 0.00 78 1010.4
20260508093046 54 221 2.6 5.2 0.00 0.00 0.00 77 1010.4
20260508091556 53 221 0.9 4.3 0.00 0.00 0.00 78 1010.4
20260508090044 53 221 0.0 4.3 0.00 0.00 0.00 77 1010.4
20260508084541 52 221 2.6 5.2 0.00 0.00 0.00 76 1010.6
20260508083045 52 221 3.5 5.2 0.00 0.00 0.00 76 1010.6
20260508081544 51 221 1.7 4.3 0.00 0.00 0.00 76 1010.5
20260508080033 51 221 0.9 4.3 0.00 0.00 0.00 76 1010.5
20260508074531 51 221 0.9 3.5 0.00 0.00 0.00 76 1010.3
20260508073028 50 221 1.7 5.2 0.00 0.00 0.00 77 1010.3
20260508071525 50 221 1.7 4.3 0.00 0.00 0.00 77 1010.3
20260508070021 49 221 1.7 3.5 0.00 0.00 0.00 77 1010.3
20260508064526 49 221 2.6 3.5 0.00 0.00 0.00 77 1010.2
20260508063017 49 221 3.5 6.1 0.00 0.00 0.00 78 1010.2
20260508061515 48 221 0.0 2.6 0.00 0.00 0.00 77 1009.9
20260508060013 48 221 0.9 2.6 0.00 0.00 0.00 77 1010.0
20260508054513 48 221 0.0 4.3 0.00 0.00 0.00 77 1009.3
20260508053011 48 221 0.9 1.7 0.00 0.00 0.00 77 1009.2
20260508051520 48 221 0.0 0.0 0.00 0.00 0.00 77 1008.9
20260508050011 48 221 0.0 0.0 0.00 0.00 0.00 77 1008.9
20260508044510 48 221 0.9 2.6 0.00 0.00 0.00 76 1009.1
20260508043017 49 221 0.9 4.3 0.00 0.00 0.00 76 1009.3
20260508041509 49 221 0.0 0.0 0.00 0.00 0.00 76 1009.1
20260508040005 49 221 2.6 4.3 0.00 0.00 0.00 76 1009.4
20260508034504 49 221 0.0 0.9 0.00 0.00 0.00 76 1009.1
20260508033002 49 221 2.6 4.3 0.00 0.00 0.00 76 1009.2
20260508031604 49 221 0.0 2.6 0.00 0.00 0.00 76 1009.1
20260508030059 49 221 2.6 5.2 0.00 0.00 0.00 76 1009.1
20260508024604 49 221 1.7 3.5 0.00 0.00 0.00 76 1009.0
20260508023056 49 221 0.0 4.3 0.00 0.00 0.00 76 1009.4
20260508021551 49 221 0.0 0.9 0.00 0.00 0.00 76 1009.6
20260508020049 49 221 1.7 4.3 0.00 0.00 0.00 76 1009.7
20260508014547 49 221 0.0 0.0 0.00 0.00 0.00 76 1010.2
20260508013044 49 221 0.0 0.9 0.00 0.00 0.00 76 1010.3
20260508011550 49 221 0.9 2.6 0.00 0.00 0.00 76 1010.4
20260508010041 48 221 0.0 1.7 0.00 0.00 0.00 76 1010.7
20260508004542 49 221 0.0 0.9 0.00 0.00 0.00 76 1010.9
20260508003040 48 221 0.0 0.0 0.00 0.00 0.00 77 1010.8
20260508001536 48 221 0.0 0.0 0.00 0.00 0.00 77 1010.8
20260508000034 49 221 0.0 0.0 0.00 0.00 0.00 77 1010.8
20260507234539 49 221 0.0 1.7 0.00 0.00 0.00 78 1010.9
20260507233033 50 221 0.0 0.0 0.00 0.00 0.00 77 1011.1
20260507231535 50 221 0.0 0.0 0.00 0.00 0.00 78 1011.2
20260507230032 50 221 0.0 0.0 0.00 0.00 0.00 77 1011.1
20260507224534 50 221 0.0 1.7 0.00 0.00 0.00 77 1011.2
20260507223031 50 221 0.0 0.9 0.00 0.00 0.00 77 1011.2
20260507221531 51 221 0.0 1.7 0.00 0.00 0.00 76 1011.4
20260507220031 51 221 0.0 1.7 0.00 0.00 0.00 75 1011.5
20260507214530 53 221 0.0 0.0 0.00 0.00 0.00 73 1011.7
20260507213031 54 221 0.0 1.7 0.00 0.00 0.00 70 1011.7
20260507211530 55 221 2.6 6.1 0.00 0.00 0.00 70 1011.9
20260507210030 55 221 4.3 7.8 0.00 0.00 0.00 70 1011.9
20260507204528 55 221 7.0 9.6 0.00 0.00 0.00 70 1011.8
20260507203030 55 221 5.2 9.6 0.00 0.00 0.00 73 1011.7
20260507201527 56 221 5.2 8.7 0.00 0.00 0.00 72 1011.5
20260507200026 56 221 6.1 9.6 0.00 0.00 0.00 73 1011.1
20260507194530 56 230 5.2 8.7 0.00 0.00 0.00 72 1010.9
20260507193026 57 230 5.2 8.7 0.00 0.00 0.00 71 1010.6
20260507191525 57 230 5.2 9.6 0.00 0.00 0.00 70 1010.4
20260507190024 58 237 5.2 9.6 0.00 0.00 0.00 69 1010.2
20260507184524 59 241 7.0 9.6 0.00 0.00 0.00 69 1010.0
20260507183025 59 240 6.1 10.4 0.00 0.00 0.00 68 1009.9
20260507181522 60 240 4.3 9.6 0.00 0.00 0.00 67 1009.7
20260507180026 61 237 5.2 8.7 0.00 0.00 0.00 66 1009.6
20260507174522 61 238 7.0 9.6 0.00 0.00 0.00 64 1009.7
20260507173031 62 233 5.2 8.7 0.00 0.00 0.00 64 1009.5
20260507171521 62 233 5.2 8.7 0.00 0.00 0.00 65 1009.4
20260507170020 61 233 4.3 8.7 0.00 0.00 0.00 66 1009.6
20260507164521 62 233 6.1 13.0 0.00 0.00 0.00 66 1009.4
20260507163019 63 260 7.0 10.4 0.00 0.00 0.00 63 1009.2
20260507161523 63 251 6.1 11.3 0.00 0.00 0.00 64 1009.2
20260507160022 64 247 7.8 12.2 0.00 0.00 0.00 60 1009.3
20260507154520 64 248 7.8 11.3 0.00 0.00 0.00 61 1009.3
20260507153018 65 244 7.0 11.3 0.00 0.00 0.00 57 1009.2
20260507151515 65 260 6.1 10.4 0.00 0.00 0.00 60 1009.2
20260507150014 64 241 6.1 11.3 0.00 0.00 0.00 63 1009.4
20260507144515 63 252 5.2 8.7 0.00 0.00 0.00 64 1009.7
20260507143011 62 252 5.2 9.6 0.00 0.00 0.00 64 1009.7
20260507141510 64 247 8.7 13.0 0.00 0.00 0.00 62 1009.8
20260507140008 64 236 4.3 12.2 0.00 0.00 0.00 64 1009.9
20260507134506 63 236 5.2 10.4 0.00 0.00 0.00 65 1009.9
20260507133004 63 236 5.2 9.6 0.00 0.00 0.00 65 1010.0
20260507131502 62 231 5.2 10.4 0.00 0.00 0.00 66 1010.2
20260507130002 62 242 5.2 10.4 0.00 0.00 0.00 66 1010.4
20260507124612 62 222 7.0 12.2 0.00 0.00 0.00 67 1010.5
20260507123056 61 242 5.2 13.9 0.00 0.00 0.00 69 1010.6
20260507121554 61 252 6.1 11.3 0.00 0.00 0.00 70 1010.8
20260507120053 60 261 5.2 9.6 0.00 0.00 0.00 72 1010.7
20260507114557 61 246 6.1 8.7 0.00 0.00 0.00 72 1011.0
20260507113048 59 244 2.6 7.8 0.00 0.00 0.00 74 1011.0
20260507111548 57 242 2.6 5.2 0.00 0.00 0.00 76 1011.1
20260507110044 57 242 3.5 7.0 0.00 0.00 0.00 76 1011.1
20260507104541 56 213 0.0 7.0 0.00 0.00 0.00 77 1011.2
20260507103040 55 213 1.7 5.2 0.00 0.00 0.00 78 1011.3
20260507101544 54 213 2.6 6.1 0.00 0.00 0.00 78 1011.4